レモン彗星

363P/Lemmon (2011)

English version
Home page
Updated on December 23, 2017

---------------------------------------------------------------------

・ プロフィール

符号 363P/2011 VJ5
発見日 2011年11月3日
発見光度 20.2等
発見者 R. Kowalski (Mount Lemmon Survey)

・ 写真集

・ 軌道要素

Epoch 2011 Dec. 25.0 TT = JDT 2455920.5
T 2011 Dec. 8.70260 TT                                  MPCW
q   1.5063991            (2000.0)            P               Q
n   0.15703181     Peri.  315.12628     -0.57564434     -0.81761164
a   3.4026005      Node   169.99785     +0.76832758     -0.54586454
e   0.5572801      Incl.    3.97275     +0.27983268     -0.18314777
P   6.28
From 63 observations 2011 Nov. 3-2017 Nov. 19, mean residual 0".5.

・ 光度変化

        m1 = 17.0 + 5 logΔ + 10.0 log r

---------------------------------------------------------------------

軌道要素はM.P.E.C. 2017-W73に掲載されたものです。
光度グラフはComet for Windowsで作成したものです。

---------------------------------------------------------------------

Copyright(C) Seiichi Yoshida (comet@aerith.net). All rights reserved.